| time (UTC) | temp F | wind direction | speed MPH | gust MPH | rain 1hr in | rain 24hr in | rain mn in | humidity % | barometer mb |
| 20260905201505 | 99 | 236 | 1.0 | 6.0 | 0.00 | 0.00 | 0.00 | 39 | 1009.7 |
| 20260905200012 | 98 | 90 | 2.0 | 9.0 | 0.00 | 0.00 | 0.00 | 40 | 1009.8 |
| 20260905194505 | 97 | 36 | 3.0 | 10.0 | 0.00 | 0.00 | 0.00 | 41 | 1010.1 |
| 20260905193005 | 98 | 80 | 2.0 | 6.0 | 0.00 | 0.00 | 0.00 | 42 | 1010.4 |
| 20260905191505 | 98 | 92 | 4.0 | 7.0 | 0.00 | 0.00 | 0.00 | 40 | 1010.6 |
| 20260905190007 | 98 | 228 | 0.0 | 9.0 | 0.00 | 0.00 | 0.00 | 42 | 1010.8 |
| 20260905184513 | 97 | 200 | 2.0 | 12.0 | 0.00 | 0.00 | 0.00 | 39 | 1011.0 |
| 20260905183005 | 96 | 345 | 3.0 | 9.0 | 0.00 | 0.00 | 0.00 | 44 | 1011.3 |
| 20260905181505 | 95 | 120 | 2.0 | 7.0 | 0.00 | 0.00 | 0.00 | 45 | 1011.5 |
| 20260905180007 | 95 | 111 | 2.0 | 6.0 | 0.00 | 0.00 | 0.00 | 48 | 1012.1 |
| 20260905174505 | 95 | 82 | 2.0 | 8.0 | 0.00 | 0.00 | 0.00 | 48 | 1012.4 |
| 20260905173006 | 93 | 69 | 0.0 | 5.0 | 0.00 | 0.00 | 0.00 | 52 | 1012.5 |
| 20260905171504 | 93 | 244 | 2.0 | 9.0 | 0.00 | 0.00 | 0.00 | 53 | 1012.6 |
| 20260905170006 | 92 | 216 | 2.0 | 7.0 | 0.00 | 0.00 | 0.00 | 57 | 1012.7 |
| 20260905164513 | 91 | 225 | 5.0 | 10.0 | 0.00 | 0.00 | 0.00 | 56 | 1012.8 |
| 20260905163005 | 90 | 268 | 1.0 | 8.0 | 0.00 | 0.00 | 0.00 | 61 | 1012.8 |
| 20260905161507 | 89 | 238 | 3.0 | 10.0 | 0.00 | 0.00 | 0.00 | 63 | 1012.9 |
| 20260905160017 | 88 | 272 | 3.0 | 9.0 | 0.00 | 0.00 | 0.00 | 65 | 1012.9 |
| 20260905154505 | 86 | 234 | 3.0 | 8.0 | 0.00 | 0.00 | 0.00 | 69 | 1012.7 |
| 20260905153004 | 87 | 115 | 2.0 | 8.0 | 0.00 | 0.00 | 0.00 | 70 | 1012.8 |
| 20260905151505 | 87 | 117 | 1.0 | 5.0 | 0.00 | 0.00 | 0.00 | 73 | 1012.9 |
| 20260905150007 | 85 | 65 | 1.0 | 6.0 | 0.00 | 0.00 | 0.00 | 77 | 1013.0 |
| 20260905144504 | 82 | 247 | 1.0 | 8.0 | 0.00 | 0.00 | 0.00 | 81 | 1012.8 |
| 20260905143006 | 81 | 249 | 1.0 | 6.0 | 0.00 | 0.00 | 0.00 | 83 | 1012.9 |
| 20260905141506 | 82 | 197 | 2.0 | 4.0 | 0.00 | 0.00 | 0.00 | 84 | 1012.8 |
| 20260905140005 | 81 | 148 | 0.0 | 4.0 | 0.00 | 0.00 | 0.00 | 87 | 1012.6 |
| 20260905134503 | 79 | 250 | 0.0 | 2.0 | 0.00 | 0.00 | 0.00 | 91 | 1012.5 |
| 20260905133004 | 78 | 250 | 0.0 | 1.0 | 0.00 | 0.00 | 0.00 | 93 | 1012.6 |
| 20260905131504 | 77 | 250 | 0.0 | 1.0 | 0.00 | 0.00 | 0.00 | 94 | 1012.4 |
| 20260905130008 | 76 | 250 | 0.0 | 1.0 | 0.00 | 0.00 | 0.00 | 95 | 1012.3 |
| 20260905124503 | 76 | 250 | 0.0 | 0.0 | 0.00 | 0.00 | 0.00 | 94 | 1011.9 |
| 20260905123003 | 76 | 250 | 0.0 | 1.0 | 0.00 | 0.00 | 0.00 | 94 | 1011.9 |
| 20260905121504 | 76 | 250 | 0.0 | 1.0 | 0.00 | 0.00 | 0.00 | 94 | 1011.8 |
| 20260905120014 | 76 | 250 | 0.0 | 1.0 | 0.00 | 0.00 | 0.00 | 94 | 1011.7 |
| 20260905114504 | 76 | 250 | 0.0 | 1.0 | 0.00 | 0.00 | 0.00 | 94 | 1011.5 |
| 20260905113004 | 76 | 250 | 0.0 | 0.0 | 0.00 | 0.00 | 0.00 | 93 | 1011.4 |
| 20260905111504 | 76 | 250 | 0.0 | 1.0 | 0.00 | 0.00 | 0.00 | 93 | 1011.5 |
| 20260905110005 | 76 | 250 | 0.0 | 0.0 | 0.00 | 0.00 | 0.00 | 93 | 1011.3 |
| 20260905104504 | 76 | 250 | 0.0 | 0.0 | 0.00 | 0.00 | 0.00 | 92 | 1011.1 |
| 20260905103006 | 76 | 250 | 0.0 | 0.0 | 0.00 | 0.00 | 0.00 | 92 | 1011.2 |
| 20260905101504 | 77 | 250 | 0.0 | 1.0 | 0.00 | 0.00 | 0.00 | 92 | 1011.2 |
| 20260905100007 | 77 | 250 | 0.0 | 1.0 | 0.00 | 0.00 | 0.00 | 92 | 1011.1 |
| 20260905094505 | 77 | 250 | 0.0 | 1.0 | 0.00 | 0.00 | 0.00 | 91 | 1011.0 |
| 20260905093003 | 77 | 250 | 0.0 | 1.0 | 0.00 | 0.00 | 0.00 | 91 | 1011.1 |
| 20260905091507 | 77 | 250 | 0.0 | 2.0 | 0.00 | 0.00 | 0.00 | 90 | 1011.1 |
| 20260905090008 | 77 | 250 | 0.0 | 1.0 | 0.00 | 0.00 | 0.00 | 89 | 1011.1 |
| 20260905084503 | 78 | 247 | 0.0 | 2.0 | 0.00 | 0.00 | 0.00 | 89 | 1011.2 |
| 20260905083009 | 78 | 247 | 0.0 | 2.0 | 0.00 | 0.00 | 0.00 | 88 | 1011.3 |
| 20260905081503 | 78 | 250 | 0.0 | 4.0 | 0.00 | 0.00 | 0.00 | 88 | 1011.3 |
| 20260905080007 | 78 | 209 | 0.0 | 3.0 | 0.00 | 0.00 | 0.00 | 87 | 1011.4 |
| 20260905074503 | 78 | 257 | 0.0 | 3.0 | 0.00 | 0.00 | 0.00 | 87 | 1011.5 |
| 20260905073003 | 79 | 257 | 0.0 | 3.0 | 0.00 | 0.00 | 0.00 | 86 | 1011.5 |
| 20260905071503 | 79 | 60 | 0.0 | 4.0 | 0.00 | 0.00 | 0.00 | 86 | 1011.8 |
| 20260905070005 | 79 | 107 | 0.0 | 3.0 | 0.00 | 0.00 | 0.00 | 85 | 1011.8 |
| 20260905064504 | 79 | 113 | 0.0 | 4.0 | 0.00 | 0.00 | 0.00 | 84 | 1011.8 |
| 20260905063003 | 79 | 121 | 1.0 | 8.0 | 0.00 | 0.00 | 0.00 | 84 | 1011.8 |
| 20260905061504 | 80 | 117 | 1.0 | 6.0 | 0.00 | 0.00 | 0.00 | 82 | 1012.0 |
| 20260905060008 | 80 | 67 | 1.0 | 5.0 | 0.00 | 0.00 | 0.00 | 81 | 1012.0 |
| 20260905054506 | 80 | 63 | 1.0 | 6.0 | 0.00 | 0.00 | 0.00 | 80 | 1011.9 |
| 20260905053008 | 80 | 109 | 2.0 | 7.0 | 0.00 | 0.00 | 0.00 | 80 | 1011.9 |
| 20260905051506 | 81 | 71 | 2.0 | 7.0 | 0.00 | 0.00 | 0.00 | 78 | 1012.0 |
| 20260905050011 | 81 | 69 | 2.0 | 9.0 | 0.00 | 0.00 | 0.00 | 78 | 1012.1 |
| 20260905044509 | 81 | 113 | 2.0 | 8.0 | 0.00 | 0.00 | 0.00 | 77 | 1012.0 |
| 20260905043006 | 81 | 11 | 2.0 | 7.0 | 0.00 | 0.00 | 0.00 | 76 | 1011.9 |
| 20260905041507 | 82 | 106 | 2.0 | 8.0 | 0.00 | 0.00 | 0.00 | 75 | 1011.9 |
| 20260905040009 | 82 | 109 | 1.0 | 5.0 | 0.00 | 0.00 | 0.00 | 75 | 1011.9 |
| 20260905034511 | 82 | 98 | 1.0 | 5.0 | 0.00 | 0.00 | 0.00 | 74 | 1011.9 |
| 20260905033006 | 82 | 49 | 0.0 | 8.0 | 0.00 | 0.00 | 0.00 | 72 | 1011.8 |
| 20260905031505 | 83 | 70 | 0.0 | 3.0 | 0.00 | 0.00 | 0.00 | 71 | 1011.7 |
| 20260905030009 | 83 | 67 | 2.0 | 6.0 | 0.00 | 0.00 | 0.00 | 70 | 1011.6 |
| 20260905024508 | 83 | 130 | 1.0 | 4.0 | 0.00 | 0.00 | 0.00 | 70 | 1011.4 |
| 20260905023006 | 83 | 63 | 2.0 | 6.0 | 0.00 | 0.00 | 0.00 | 71 | 1011.3 |
| 20260905021505 | 83 | 94 | 0.0 | 2.0 | 0.00 | 0.00 | 0.00 | 71 | 1010.9 |
| 20260905020008 | 84 | 70 | 0.0 | 4.0 | 0.00 | 0.00 | 0.00 | 70 | 1010.9 |
| 20260905014505 | 84 | 77 | 1.0 | 5.0 | 0.00 | 0.00 | 0.00 | 69 | 1010.8 |
| 20260905013005 | 85 | 95 | 2.0 | 6.0 | 0.00 | 0.00 | 0.00 | 68 | 1010.6 |
| 20260905011506 | 85 | 80 | 2.0 | 6.0 | 0.00 | 0.00 | 0.00 | 67 | 1010.5 |
| 20260905010007 | 86 | 105 | 2.0 | 5.0 | 0.00 | 0.00 | 0.00 | 66 | 1010.4 |
| 20260905004507 | 86 | 104 | 2.0 | 8.0 | 0.00 | 0.00 | 0.00 | 63 | 1010.4 |
| 20260905003008 | 87 | 66 | 1.0 | 8.0 | 0.00 | 0.00 | 0.00 | 62 | 1010.1 |
| 20260905001505 | 88 | 49 | 3.0 | 8.0 | 0.00 | 0.00 | 0.00 | 61 | 1010.0 |
| 20260905000008 | 88 | 36 | 3.0 | 8.0 | 0.00 | 0.00 | 0.00 | 61 | 1009.9 |
| 20260904234506 | 89 | 43 | 3.0 | 9.0 | 0.00 | 0.00 | 0.00 | 59 | 1009.8 |
| 20260904233005 | 91 | 117 | 3.0 | 7.0 | 0.00 | 0.00 | 0.00 | 56 | 1009.7 |
| 20260904231506 | 93 | 53 | 1.0 | 9.0 | 0.00 | 0.00 | 0.00 | 46 | 1009.8 |
| 20260904230007 | 94 | 114 | 2.0 | 8.0 | 0.00 | 0.00 | 0.00 | 47 | 1009.9 |
| 20260904224505 | 94 | 246 | 1.0 | 5.0 | 0.00 | 0.00 | 0.00 | 48 | 1009.9 |
| 20260904223005 | 95 | 263 | 2.0 | 7.0 | 0.00 | 0.00 | 0.00 | 46 | 1010.1 |
| 20260904221506 | 95 | 93 | 3.0 | 7.0 | 0.00 | 0.00 | 0.00 | 45 | 1010.1 |
| 20260904220007 | 95 | 258 | 1.0 | 7.0 | 0.00 | 0.00 | 0.00 | 46 | 1010.1 |
| 20260904214505 | 94 | 103 | 2.0 | 7.0 | 0.00 | 0.00 | 0.00 | 52 | 1010.2 |
| 20260904213011 | 94 | 99 | 3.0 | 10.0 | 0.00 | 0.00 | 0.00 | 54 | 1010.4 |
| 20260904211504 | 93 | 5 | 4.0 | 10.0 | 0.00 | 0.00 | 0.00 | 55 | 1010.6 |
| 20260904210011 | 92 | 76 | 3.0 | 10.0 | 0.00 | 0.00 | 0.00 | 58 | 1010.7 |
| 20260904204505 | 91 | 45 | 3.0 | 9.0 | 0.00 | 0.00 | 0.00 | 60 | 1010.8 |
| 20260904203010 | 89 | 119 | 2.0 | 6.0 | 0.00 | 0.00 | 0.00 | 65 | 1011.1 |